Location: New Plymouth
(39.0670°S, 174.0830°E)
Time: 04:57:16
(UTC+13:00)

Cosmos 1709 Rocket - Pass Details

Date: 24 January 2019
Orbit: 949 x 1001 km, 82.9° (Epoch: 20 October)

Event Time Altitude Azimuth Distance (km) Brightness Sun altitude
Exits shadow 23:19:43 50° 36° (NE) 1,245 4.1 -23.6°
Maximum altitude 23:21:08 63° 87° (E) 1,099 4.0 -23.8°
Drops below altitude 10° 23:27:20 10° 166° (SSE) 2,744 6.9 -24.4°
Sets 23:29:52 0° 169° (S) 3,690 7.7 -24.7°
